Terug naar catalogus

STARLINK-31211

ActiefCommunicatieVLEO
NORAD 59031·PAYLOAD·🇺🇸 United States

Gelanceerd Feb 25, 2024 vanaf Cape Canaveral Space Force Station

Loading…

Volgende Passages (komende 24 uur)

TLE

VersSource: CelesTrak SupGP

Epoch: Sep 14, 2026, 21:30 UTC

1 59031C 24038J   26257.89631944  .00047282  00000+0  17128-2 0  2571
2 59031  43.0027  38.2071 0001594 271.6697 245.1399 15.27550856    12

Volg STARLINK-31211 in realtime met AllMySat

Download on the App Store